Temp
14 14 14 14 13 13 13 13 12 12 12 11 11 11 11 10 10 10 9 9 9 9 9 9 9 9 9 9 9 9 8 8 8 8 7 7 7 7 7 6 6 6 6 6 6 6 6 6 6 6 5 5 5 5 5 5 5 5 5 4 5 4 3 2 2 2 3 4 4 4 5 4 4 4 4 4 4 4 4 4 4 4 4 4 4
14 14 13 13 13 13 12 12 12 12 11 11 11 11 10 10 10 10 9 9 9 9 9 9 9 9 9 9 8 8 8 8 8 8 7 7 7 7 7 7 6 6 6 6 6 6 6 6 6 6 5 5 5 5 5 5 5 5 5 4 4 5 4 3 2 1 2 4 4 4 4 4 4 4 4 4 4 4 4 4 4 4 4 4 4
13 13 13 13 12 12 12 12 12 11 11 11 11 10 10 10 10 9 9 9 9 9 9 9 9 9 9 8 8 8 8 8 8 8 7 7 7 7 7 7 7 7 6 6 6 6 6 6 6 6 5 5 5 5 5 5 5 5 5 5 5 5 5 4 3 2 1 3 3 4 4 4 3 4 4 3 4 4 4 4 4 4 4 4 4
13 13 13 12 12 12 12 11 11 11 11 11 10 10 10 10 9 9 9 9 9 9 9 8 8 8 8 8 8 8 8 8 8 7 7 7 7 7 7 7 7 7 7 6 6 6 6 6 6 6 5 5 5 5 5 5 5 5 5 5 5 5 6 5 4 3 1 2 3 3 3 3 3 3 3 3 3 3 3 4 4 4 4 4 4
13 13 12 12 12 12 11 11 11 11 11 11 10 10 10 9 9 9 9 9 9 9 8 8 8 8 8 8 8 8 8 8 7 7 7 7 7 7 7 7 7 7 7 6 6 6 6 6 6 5 5 5 5 5 5 5 5 5 5 5 5 5 5 5 5 4 2 2 3 3 3 3 3 3 3 3 3 3 3 3 3 3 3 3 3
13 12 12 12 11 11 11 11 11 11 11 10 10 10 9 9 9 9 9 9 9 9 8 8 8 8 8 8 8 8 8 8 7 7 7 7 7 7 7 7 7 7 6 6 6 6 6 6 6 5 5 5 5 5 5 5 5 5 5 5 5 5 5 5 4 4 3 2 2 2 3 3 3 3 3 3 3 3 3 3 3 3 3 3 3
12 12 12 11 11 11 11 11 11 11 10 10 10 9 9 9 9 9 9 9 9 9 8 7 7 8 8 8 8 8 8 8 7 7 7 7 7 7 7 7 7 7 6 6 6 6 6 6 6 5 5 5 5 5 5 5 5 5 5 5 5 5 4 5 4 3 3 2 2 2 2 2 2 3 3 3 3 3 3 3 3 3 3 3 3
12 11 11 11 11 10 10 10 10 10 10 10 9 9 9 9 9 9 9 9 9 9 8 7 7 7 7 7 7 7 7 7 7 7 7 7 7 7 7 7 7 7 6 6 6 6 6 6 6 5 5 5 5 5 5 5 5 6 6 5 5 4 4 4 4 3 2 2 2 2 2 2 2 3 3 3 3 3 3 3 3 3 3 3 3
11 11 10 10 10 10 10 10 10 10 10 9 9 9 9 9 9 9 9 9 9 8 8 7 7 7 7 7 7 7 7 7 7 7 7 7 7 7 7 7 7 7 6 6 6 6 6 6 6 6 5 5 5 6 6 6 6 6 5 5 5 5 5 4 4 3 2 2 2 2 2 2 2 2 2 2 2 2 2 2 2 2 2 3 3
11 10 10 10 10 10 10 10 10 9 9 9 9 9 9 8 8 8 9 8 8 7 7 7 7 7 7 7 7 7 7 7 7 7 7 7 7 7 7 7 7 7 6 6 6 6 6 6 6 6 5 6 6 6 6 6 6 6 5 5 5 5 5 4 3 3 2 2 2 2 2 2 2 2 2 2 2 2 2 2 2 2 2 2 2
10 10 10 10 10 10 9 9 9 9 9 9 9 9 8 8 8 8 8 8 7 7 6 6 6 6 6 7 7 7 7 7 7 7 7 7 7 7 7 7 7 7 7 7 6 6 6 6 6 6 6 6 6 6 6 6 6 6 6 5 5 5 5 4 3 3 2 1 1 1 1 1 2 2 2 2 2 2 2 2 2 2 2 2 2
10 10 10 10 10 9 9 9 9 8 8 8 8 8 8 8 8 8 8 7 7 6 6 6 6 6 6 6 7 7 7 7 7 7 7 7 7 7 7 7 7 7 7 7 7 6 6 6 6 6 6 6 6 6 6 6 6 5 5 5 5 5 5 4 3 2 2 1 1 1 2 2 2 2 2 2 2 1 1 2 2 2 2 2 2
10 9 9 10 9 9 9 9 8 8 8 8 8 8 8 8 8 8 8 7 6 6 6 6 6 6 6 6 7 7 7 7 7 7 7 7 7 7 7 7 7 7 7 7 7 6 6 6 6 6 6 6 6 6 6 6 5 5 5 5 6 6 6 5 4 3 2 2 1 2 3 2 1 2 2 2 1 1 1 1 2 2 2 1 1
9 9 9 9 9 9 8 8 8 8 8 8 8 8 8 8 8 8 8 7 6 6 6 6 6 6 6 6 6 7 6 6 7 7 7 7 7 7 7 6 6 6 6 6 6 6 6 5 6 6 6 6 6 6 6 6 5 5 5 5 5 6 6 5 5 4 3 3 2 2 3 3 2 2 3 2 1 1 1 1 1 1 1 1 1
9 9 8 8 8 8 8 8 8 8 8 8 8 8 8 8 8 8 8 7 6 6 6 6 6 6 6 6 6 6 6 6 6 6 7 7 7 7 7 6 6 6 6 6 6 6 6 5 6 6 6 6 6 6 6 6 5 5 5 5 5 6 6 5 5 4 4 4 4 4 4 4 3 3 4 3 2 2 2 1 1 1 1 1 1
9 8 8 8 8 8 8 8 8 7 7 8 8 8 8 8 8 8 7 7 6 6 6 6 6 6 6 6 6 6 6 6 7 7 7 7 7 7 6 6 6 6 6 6 6 6 6 6 6 6 6 6 6 6 6 5 5 5 5 5 5 5 6 5 5 5 4 5 5 5 5 5 5 4 4 3 3 2 2 1 1 1 0 0 0
8 8 8 8 8 8 8 8 8 7 7 7 7 8 8 8 8 8 7 7 6 6 6 6 7 7 7 7 7 7 7 7 7 7 7 7 7 6 6 5 5 5 6 6 6 6 6 6 6 6 6 7 6 6 6 5 5 5 4 4 5 5 5 5 5 5 5 5 5 5 5 5 5 5 4 4 3 2 2 1 1 0 -0 -0 0
8 8 8 8 8 8 8 8 8 7 7 7 8 8 8 8 8 8 7 7 7 7 7 7 7 7 7 7 7 7 7 7 7 7 7 6 6 6 5 5 5 5 5 6 6 6 6 6 6 6 7 7 6 6 6 5 5 5 4 4 4 4 4 4 5 5 5 5 5 5 5 5 5 5 4 4 3 3 2 1 1 -0 -0 -0 0
8 8 8 8 8 9 8 8 8 8 8 7 8 8 8 8 8 7 8 7 7 7 7 7 7 7 7 7 7 7 7 7 7 6 6 6 5 5 5 5 5 5 5 5 6 6 6 6 6 6 7 7 6 6 6 5 5 5 4 4 4 4 4 4 4 4 4 4 5 5 5 5 5 5 4 4 3 3 2 1 1 -0 -0 -0 -0
9 9 9 8 9 9 8 8 8 8 8 8 8 8 8 8 8 7 7 7 7 7 7 7 7 7 7 7 7 7 7 7 6 6 6 5 5 4 5 5 5 5 5 6 6 6 6 7 7 7 7 7 6 6 6 5 5 5 4 4 4 4 4 4 4 4 4 4 4 5 5 5 4 4 4 4 3 3 2 2 1 0 -0 -0 -0
9 9 9 9 9 8 8 9 9 9 8 8 8 8 8 8 8 7 7 7 7 7 7 7 7 7 7 7 7 7 7 6 6 6 5 5 4 5 5 5 5 6 6 6 6 6 6 7 7 7 7 7 6 6 6 5 5 5 4 4 4 4 4 4 4 4 4 4 4 4 4 4 4 4 4 4 3 3 2 2 2 1 0 -0 -0
9 9 9 8 8 8 8 9 9 8 8 8 8 8 8 8 8 7 7 7 7 7 7 7 7 7 6 6 6 6 6 6 6 6 5 5 5 5 5 5 6 6 6 6 6 6 6 7 7 7 7 7 6 6 6 6 5 5 5 4 4 4 4 4 4 4 4 4 3 4 4 3 3 4 4 3 3 3 2 2 2 1 0 0 -0
9 8 8 8 8 8 8 8 8 8 8 8 8 8 8 8 8 7 7 7 7 7 7 7 6 6 6 6 6 6 6 6 6 6 6 5 5 5 5 6 6 6 6 6 6 6 6 7 7 7 7 7 7 6 6 6 5 5 5 5 5 5 5 5 5 4 4 3 3 3 3 3 3 3 3 3 3 3 2 2 2 2 1 0 0
8 8 8 8 8 8 8 8 8 8 8 8 8 8 8 8 7 7 7 7 7 7 7 7 7 7 6 6 6 6 6 6 6 6 6 6 6 6 6 6 6 6 6 6 6 6 7 7 7 7 7 7 7 6 6 6 5 5 5 5 5 5 4 5 4 4 4 3 2 2 3 3 3 3 3 3 3 3 2 2 2 2 1 1 0
8 8 8 8 8 8 7 7 7 8 8 8 8 8 8 7 7 7 7 7 7 7 6 7 7 7 7 7 6 6 6 6 6 6 6 6 6 6 6 6 6 6 6 6 6 6 7 7 7 7 7 7 7 6 6 6 6 5 5 5 5 5 4 4 4 4 3 3 2 2 2 3 4 4 4 4 3 3 2 2 2 2 1 1 1
8 8 8 8 7 7 7 7 7 8 8 8 8 8 8 7 7 7 7 7 7 7 7 7 7 7 7 7 7 7 6 6 6 6 6 6 6 6 6 6 6 6 6 6 6 6 7 7 7 7 7 7 7 7 6 6 6 5 5 5 5 5 4 4 4 4 3 3 2 2 3 3 4 4 4 4 3 3 2 2 2 2 1 1 1
8 8 7 7 7 7 7 7 7 7 7 7 7 8 8 7 7 7 7 6 6 6 7 7 7 7 7 7 7 7 7 7 6 6 6 7 7 7 6 6 6 6 6 6 6 7 7 7 7 7 7 7 7 7 6 6 6 6 5 5 5 5 4 4 4 4 3 3 3 3 3 3 4 4 4 4 3 3 2 2 1 1 1 1 1
8 8 7 7 7 7 7 7 7 7 7 7 7 7 7 7 7 7 7 7 6 6 7 7 7 8 8 8 7 7 7 7 7 7 7 7 7 7 7 7 6 6 6 6 7 7 7 7 7 7 7 7 7 7 7 6 6 6 5 5 5 5 5 4 4 4 4 4 4 3 3 3 3 4 4 4 3 3 2 2 1 1 1 1 1
8 8 7 7 7 7 7 7 7 7 7 7 7 7 8 7 7 7 7 7 7 8 8 8 8 8 8 8 8 8 8 8 8 8 8 7 7 7 7 7 7 6 6 7 7 7 7 7 7 7 7 7 7 7 7 7 6 6 6 5 5 5 5 5 4 4 4 4 4 3 3 3 3 3 3 3 4 3 2 2 1 1 1 1 1
8 7 7 7 7 7 7 7 7 7 7 7 7 7 7 7 8 8 8 8 8 8 8 9 9 9 8 9 9 9 9 9 9 9 8 8 7 7 7 7 6 6 6 7 7 7 7 7 7 7 7 7 7 7 7 7 6 6 6 5 5 5 5 5 4 4 4 4 4 4 3 2 2 3 2 2 3 4 3 2 1 1 1 1 1
7 7 7 7 7 7 7 7 7 7 7 7 7 7 7 7 7 8 8 8 8 8 8 9 9 9 9 9 9 9 9 9 9 9 8 8 7 7 7 7 6 6 6 6 7 7 7 7 7 7 7 7 7 7 7 7 7 6 6 6 5 5 5 5 4 4 4 4 4 4 3 3 2 3 2 2 2 3 3 2 1 1 1 1 1
8 7 7 7 7 7 7 7 7 7 6 6 7 7 7 6 6 6 7 8 8 8 8 8 9 9 9 9 9 9 9 9 9 9 8 8 7 7 7 7 6 6 6 6 7 7 7 7 7 7 7 7 7 7 7 7 7 6 6 6 5 5 5 5 4 4 4 4 4 4 3 3 3 3 3 2 2 2 3 2 1 1 1 1 1
8 8 7 7 7 7 7 7 7 7 6 6 6 7 7 7 6 6 6 7 8 8 8 8 9 9 9 9 9 9 9 9 9 9 8 8 8 7 7 7 6 6 6 6 7 7 7 7 7 7 7 7 7 7 7 7 7 7 6 6 5 5 5 5 5 4 4 4 4 4 3 3 3 3 3 3 2 2 2 2 1 1 0 1 1
9 8 8 8 7 7 7 7 7 7 7 7 7 7 7 7 7 6 6 7 7 7 8 8 9 9 9 9 9 9 9 9 9 9 8 8 7 7 7 6 6 6 7 7 7 7 7 7 7 7 7 7 7 7 7 7 7 7 7 6 6 6 6 5 5 5 4 4 4 4 4 3 3 3 3 3 3 2 2 2 1 1 0 0 0
9 8 8 8 7 7 7 7 7 7 7 7 7 7 7 7 7 7 7 7 7 8 8 8 9 9 9 9 10 10 10 9 9 8 8 8 7 7 7 6 7 7 7 7 7 7 7 7 7 8 8 8 8 8 8 7 7 7 7 7 6 6 6 6 5 5 5 4 4 4 4 4 3 3 3 3 2 2 2 2 1 1 0 0 0
9 8 8 8 8 7 7 7 7 7 7 7 7 8 8 7 7 7 8 8 8 8 9 9 9 9 9 10 10 10 9 9 8 8 8 7 7 7 7 7 7 7 7 7 7 7 7 8 8 8 8 8 8 8 8 8 8 7 7 7 6 6 6 6 6 5 5 4 4 4 4 4 3 3 3 3 3 3 2 2 2 2 2 1 0
9 8 8 8 8 8 7 7 7 7 8 8 8 8 7 7 7 8 8 8 8 9 9 9 9 9 9 10 9 9 9 8 8 7 7 7 7 7 7 7 8 8 8 8 8 8 8 8 8 8 8 8 8 8 8 8 8 8 7 7 7 6 6 6 6 6 5 5 4 4 4 4 4 3 3 3 3 3 3 3 3 3 3 2 2
9 9 8 8 8 8 7 7 7 7 7 7 7 7 7 7 7 8 8 8 8 9 9 9 9 9 9 9 9 9 8 8 8 7 7 7 7 7 7 8 8 8 8 8 8 8 8 8 9 8 8 8 8 8 8 8 8 8 8 7 7 7 6 6 6 6 6 5 5 4 4 4 4 3 3 3 3 3 4 3 3 3 3 3 3
9 9 9 9 8 8 7 7 7 7 7 7 7 7 7 7 7 8 8 8 8 9 9 9 9 9 9 9 9 8 8 8 8 8 8 8 8 8 8 8 8 8 8 9 9 9 9 9 9 9 9 8 8 8 9 9 8 8 8 8 7 7 7 7 7 6 6 6 5 5 4 4 4 4 3 3 3 3 3 4 3 3 3 3 3
8 8 8 8 8 8 8 7 7 7 7 7 7 7 7 7 8 8 8 8 8 9 9 9 9 9 9 9 9 9 9 8 8 9 9 9 9 8 8 8 8 9 9 9 9 9 9 9 9 9 9 9 9 9 9 9 9 9 8 8 8 8 7 7 7 7 6 6 6 5 5 4 4 4 4 3 3 3 3 3 4 3 3 3 3
8 8 8 8 8 8 7 7 7 7 7 7 7 7 8 8 8 8 8 8 9 9 9 9 9 9 10 9 9 9 9 9 9 9 9 9 9 9 9 9 9 9 9 9 9 9 9 9 9 9 9 9 9 9 9 9 9 9 9 8 8 8 8 7 7 7 7 6 6 6 6 5 4 4 4 4 3 3 3 3 4 4 4 3 3
8 8 8 8 8 7 7 7 7 7 7 7 7 8 8 8 8 8 8 8 9 9 9 9 9 9 9 9 9 9 9 9 9 9 9 9 9 9 9 9 10 10 10 10 10 10 9 9 9 9 9 9 9 9 9 9 9 9 9 9 8 8 8 8 8 7 7 7 6 6 6 6 5 4 4 4 3 3 3 3 3 4 4 4 3
8 8 8 7 7 7 7 7 7 7 7 7 7 8 8 8 8 8 9 8 9 9 9 9 9 9 10 10 9 9 9 9 9 9 9 10 10 10 10 10 10 10 10 10 10 10 10 10 10 10 9 9 9 9 9 9 9 9 9 9 9 9 8 8 8 8 7 7 7 6 6 6 6 5 5 4 4 4 3 3 3 3 3 3 3
8 8 8 7 7 7 7 7 7 7 7 8 8 8 8 8 8 8 9 8 9 9 9 9 9 10 10 10 9 9 9 9 10 10 10 10 10 10 10 10 10 10 10 10 10 10 10 10 10 10 10 10 10 10 10 10 10 9 9 9 9 9 9 9 9 8 8 7 7 7 6 6 6 6 5 5 4 4 4 3 3 3 3 3 3
8 8 8 7 7 7 7 7 7 7 8 8 8 8 8 8 8 8 8 8 8 9 9 9 9 10 10 10 10 10 10 10 10 10 10 10 10 10 10 10 10 10 10 10 10 10 10 10 10 10 10 10 10 10 10 10 10 10 10 10 10 10 10 10 9 9 8 8 7 7 6 6 6 6 6 5 5 4 4 3 3 3 3 3 3
8 8 8 7 7 7 7 7 7 7 8 8 8 8 7 8 8 8 8 8 8 9 9 9 10 10 10 10 10 10 10 10 10 10 10 10 10 10 10 10 10 10 10 10 10 10 10 10 10 10 10 10 10 10 10 10 10 10 10 10 10 10 10 10 10 9 9 8 8 7 7 6 6 6 6 5 5 5 4 4 3 3 3 3 3
8 8 7 7 7 7 7 7 7 7 8 8 8 8 8 8 8 8 8 8 9 9 9 9 10 10 10 10 10 10 10 10 10 10 10 10 10 10 10 10 10 10 10 10 10 10 10 10 10 10 10 10 10 10 10 10 10 10 10 10 10 10 10 10 10 10 10 9 9 8 7 6 6 6 6 5 5 5 5 4 4 4 3 3 3
8 7 7 7 7 7 7 7 7 7 7 7 7 8 8 8 8 8 8 8 9 9 9 10 10 10 10 10 10 10 10 10 10 10 10 10 10 10 10 10 10 10 10 10 11 11 11 11 11 11 11 11 11 11 11 11 11 11 11 11 10 10 10 10 10 10 10 10 9 9 8 7 7 7 6 6 6 5 5 5 4 4 4 4 3
7 7 7 7 8 8 8 7 7 7 7 7 7 7 7 8 8 8 8 9 9 9 9 9 10 10 10 10 10 10 10 10 10 10 10 10 10 10 10 10 10 10 10 11 11 11 11 11 11 11 11 11 11 11 11 11 11 11 11 11 11 11 11 10 10 10 10 10 10 9 9 8 8 7 6 6 6 5 5 5 5 4 4 4 4
7 7 7 7 8 8 8 8 7 7 7 7 7 7 7 7 8 8 8 9 9 9 9 9 9 10 10 10 10 10 10 10 10 10 10 10 10 10 10 10 10 10 11 11 11 11 11 11 11 11 11 11 11 11 11 11 11 11 11 11 11 11 11 11 10 10 10 10 10 10 9 9 9 8 7 6 6 5 5 5 5 5 4 4 4
7 7 7 7 7 8 8 8 8 7 7 7 7 7 8 8 8 9 9 9 9 9 9 10 10 10 10 10 10 10 10 10 10 10 10 10 10 10 10 10 10 10 11 11 11 11 11 11 11 11 11 11 11 11 11 11 11 11 11 11 11 11 11 11 11 10 10 10 10 9 9 9 9 8 7 7 6 6 5 5 5 5 5 4 4
Height
820 822 825 827 829 831 833 835 837 839 841 843 845 846 848 849 850 851 853 854 856 857 858 859 860 860 861 861 862 863 864 864 865 865 864 864 864 865 865 866 866 867 868 868 869 869 869 868 868 868 868 867 867 867 866 866 865 865 864 862 861 859 857 856 854 848 843 842 839 835 833 830 826 823 821 817 814 812 809 805 802 799 796 793 789
819 822 824 826 828 830 833 835 837 839 841 842 845 846 847 849 850 852 853 855 856 858 858 859 860 861 862 862 863 864 865 865 866 865 865 865 865 866 867 867 867 868 869 869 870 870 869 869 869 868 868 868 868 868 867 867 866 864 863 861 859 858 857 855 853 848 842 839 837 833 830 829 824 821 819 816 812 809 806 802 799 796 793 790 786
819 821 823 825 827 830 832 834 837 838 841 842 844 846 847 849 850 852 853 855 856 858 859 860 861 861 862 862 863 864 865 866 866 866 866 866 866 867 868 868 869 869 870 870 870 870 870 869 869 869 869 869 868 868 868 867 866 864 862 861 859 857 856 854 852 849 843 837 834 831 828 826 823 819 817 814 811 807 803 799 796 793 789 787 783
818 820 822 824 827 829 831 834 836 838 840 842 844 846 847 849 850 852 853 855 856 858 859 860 861 861 862 863 863 864 865 866 866 866 867 866 867 867 868 869 870 870 871 871 871 871 870 870 870 869 869 869 869 868 868 867 865 864 862 860 858 856 855 854 852 849 844 837 833 831 828 824 821 818 814 811 808 805 801 797 793 789 786 784 780
817 819 821 824 826 829 830 833 835 837 839 841 843 845 847 848 850 852 853 854 856 858 859 860 861 861 862 863 864 865 865 866 867 867 867 867 867 868 869 870 870 871 871 871 871 871 871 870 870 870 870 869 869 868 867 866 864 863 861 859 858 856 854 853 851 848 845 839 832 829 827 823 819 816 813 809 804 800 797 794 791 786 782 779 777
816 818 821 824 826 828 830 832 834 836 838 841 843 845 846 848 850 851 853 854 856 857 858 860 861 861 862 863 864 865 865 866 867 867 867 867 867 868 869 870 871 871 872 872 872 872 871 871 871 870 870 870 869 868 867 866 864 862 860 859 857 855 853 851 849 846 843 839 833 828 825 822 818 814 811 809 804 797 791 787 785 783 779 774 770
815 818 821 823 825 828 830 832 834 835 838 840 842 844 846 847 848 850 852 854 856 857 858 859 860 861 862 863 864 865 865 866 867 867 868 868 868 868 869 870 871 871 872 872 872 872 872 872 871 871 871 870 869 868 867 865 863 862 860 859 857 854 852 849 847 845 841 837 833 829 824 821 817 813 809 806 803 799 792 784 777 774 773 771 765
814 818 820 822 825 828 830 832 834 836 838 840 842 843 845 846 848 850 852 854 855 856 857 858 859 861 862 863 864 865 866 867 867 868 868 868 868 868 869 870 871 872 872 872 872 872 872 872 872 871 871 870 870 869 867 865 863 862 860 858 856 853 851 848 845 843 840 836 832 829 824 819 815 811 807 803 800 796 793 787 778 771 767 765 763
813 817 819 822 825 827 829 831 833 835 837 839 841 842 844 846 848 850 852 854 855 856 857 858 859 860 862 863 864 865 866 867 868 868 868 868 868 868 869 870 871 871 872 872 872 872 872 872 872 872 871 871 870 869 867 866 864 862 860 858 855 853 850 847 844 842 839 835 831 827 823 819 814 809 805 802 799 794 790 786 779 772 766 760 758
812 815 818 821 824 826 828 830 832 834 836 838 840 841 843 845 848 850 852 853 855 856 857 858 859 860 861 863 864 865 866 867 868 868 868 868 868 868 869 870 870 871 872 872 872 872 872 872 872 872 871 870 870 868 867 866 864 863 861 858 855 852 849 846 844 841 838 835 831 827 823 818 813 810 805 801 798 793 788 783 776 769 764 755 749
810 814 817 820 823 825 827 830 832 834 835 837 839 841 843 845 847 850 851 852 854 856 857 858 859 860 862 863 864 865 866 867 868 868 868 868 868 868 869 869 870 871 871 872 872 872 872 872 872 872 871 870 869 868 867 866 864 863 861 859 856 853 850 846 843 841 838 835 831 827 823 818 813 809 805 799 796 792 787 782 775 768 763 755 746
809 812 815 818 821 824 827 829 831 834 836 839 840 841 843 844 846 849 851 852 854 855 857 858 859 860 862 863 863 865 866 867 867 867 868 868 868 868 868 869 869 870 871 871 871 872 872 872 872 871 871 870 869 867 866 865 864 862 860 858 856 853 851 848 844 841 838 835 831 827 823 818 813 808 803 798 794 790 785 780 775 769 763 758 750
808 811 814 816 820 823 826 828 830 833 836 838 840 841 843 844 846 848 850 852 853 855 857 858 859 860 861 862 863 864 865 866 867 867 867 867 867 867 868 868 869 870 870 871 871 871 871 872 872 871 870 870 868 867 866 864 863 861 859 857 855 852 850 847 844 841 838 835 831 827 823 819 814 808 803 799 793 787 782 776 772 768 762 757 751
807 810 813 815 818 822 825 827 830 832 834 836 838 840 842 844 846 848 849 851 853 855 856 858 859 860 861 862 863 864 865 866 866 867 867 867 867 867 867 868 868 869 870 870 870 871 871 871 871 871 870 869 868 866 865 864 862 860 858 856 853 850 848 845 843 840 838 835 831 827 823 819 815 808 803 799 794 788 782 775 769 765 760 754 750
806 809 812 815 818 821 824 826 829 831 833 835 838 840 842 843 845 847 849 851 852 854 856 857 858 860 861 862 863 864 864 865 866 866 866 866 866 866 866 866 867 868 869 869 870 870 871 871 871 870 869 868 867 866 864 863 861 858 856 854 851 849 846 843 841 838 836 834 831 827 822 819 814 808 802 798 794 789 784 778 771 764 757 750 745
806 809 811 814 817 820 823 825 828 830 832 834 837 839 841 843 845 847 849 851 853 854 856 857 858 859 860 862 863 863 864 865 865 865 865 865 865 865 865 866 866 867 868 869 870 870 870 870 870 870 869 868 867 866 864 862 860 857 855 852 849 847 845 842 840 838 835 832 830 826 823 818 813 808 802 797 792 786 781 775 769 762 754 745 739
804 807 810 813 816 819 821 823 826 828 831 833 835 837 840 842 845 847 848 850 852 854 855 857 858 859 860 861 862 863 863 864 865 865 864 864 864 864 864 865 866 867 868 869 869 870 870 870 870 869 868 867 866 865 863 862 859 857 853 851 848 845 843 840 838 836 834 831 828 825 821 817 812 807 801 796 790 784 778 771 764 759 752 743 735
803 805 808 811 814 817 819 821 824 826 830 832 834 837 840 842 844 846 848 850 852 853 855 856 858 859 860 861 862 862 863 864 864 864 863 863 863 864 864 865 866 867 868 868 869 869 869 869 869 868 867 867 866 865 863 861 858 856 853 850 846 843 841 838 835 833 831 828 826 823 819 815 810 804 799 794 789 784 778 771 764 758 752 745 736
800 803 806 809 812 815 817 820 823 825 828 831 833 836 839 841 843 846 848 850 851 853 855 856 857 859 860 861 862 862 863 863 863 863 863 863 863 864 864 865 865 866 867 868 869 869 869 869 868 868 867 866 865 864 862 860 858 855 852 849 846 843 840 837 833 830 827 824 822 819 815 811 807 802 797 792 787 782 778 772 765 759 752 746 739
798 802 805 808 811 813 816 819 821 823 826 829 832 835 838 840 843 845 847 849 851 853 854 856 857 859 860 861 862 863 863 863 863 863 863 863 863 864 864 865 865 866 867 868 868 868 869 868 868 867 867 866 865 863 861 859 857 855 852 849 846 843 839 836 833 830 826 823 820 816 813 809 805 800 795 790 785 780 775 770 765 759 753 746 740
797 801 804 807 810 812 815 817 820 822 825 828 831 834 837 839 842 844 846 848 850 852 854 855 856 858 859 861 862 863 863 863 863 863 863 863 863 864 864 865 865 866 867 867 868 868 868 868 867 867 866 865 864 862 860 858 856 854 852 849 847 843 840 836 832 829 826 822 819 815 811 807 803 798 793 788 783 778 773 768 763 758 752 746 738
796 799 802 805 808 811 814 816 818 821 824 827 830 833 836 838 841 843 845 847 849 851 853 854 856 857 859 860 861 862 862 862 863 863 863 863 863 864 864 865 865 866 866 867 867 867 868 867 867 866 865 864 863 861 859 858 856 854 852 849 846 843 840 836 832 828 825 821 818 814 810 805 801 796 792 786 781 776 771 766 761 757 752 747 740
795 798 801 804 807 810 813 815 817 820 823 825 828 831 834 837 839 841 844 846 848 850 852 854 855 856 858 859 860 861 862 862 863 863 863 863 863 863 864 864 865 866 866 867 867 867 867 867 866 865 865 863 862 860 859 857 855 853 851 848 846 842 839 835 831 827 824 820 817 813 809 805 801 796 791 786 780 775 771 766 760 755 750 745 740
794 797 800 803 806 809 811 814 816 819 821 824 827 830 833 836 838 840 843 845 847 849 850 852 854 855 857 858 859 860 861 861 862 862 862 863 863 863 864 864 865 865 866 866 867 867 866 866 865 865 864 862 861 859 858 856 854 852 850 847 845 842 838 835 831 827 823 820 816 813 809 805 801 797 792 787 781 777 772 767 761 755 750 743 737
793 796 799 802 805 808 810 813 815 818 820 823 826 828 831 834 836 839 841 844 846 847 849 851 852 854 855 857 858 859 860 861 861 862 862 862 862 862 863 864 864 865 865 866 866 866 865 865 864 864 862 861 860 859 857 855 853 851 849 847 844 841 838 835 831 827 823 820 817 813 810 806 802 798 794 789 783 777 772 766 760 754 748 741 735
791 795 798 801 804 806 809 812 815 817 820 822 824 827 830 832 835 837 840 842 844 846 848 850 851 853 854 855 856 858 859 860 860 861 861 861 862 862 862 863 864 864 864 865 865 865 865 864 863 863 862 860 859 858 856 854 852 850 848 846 844 841 838 835 831 828 824 820 817 813 810 807 803 799 794 789 783 777 771 765 758 752 746 740 733
789 793 796 799 803 805 807 810 813 816 819 821 824 826 828 831 833 835 837 840 842 844 846 848 849 851 853 854 855 857 858 858 859 859 860 860 861 861 862 862 863 863 864 864 864 864 863 863 862 862 861 859 858 857 855 853 851 849 847 845 843 841 838 835 832 829 825 821 817 814 810 807 803 798 793 788 783 778 773 767 761 754 748 743 736
788 791 795 798 801 803 806 808 811 814 817 819 822 824 826 829 831 833 834 836 838 840 843 846 848 849 851 852 854 855 856 857 857 857 858 859 860 860 861 861 862 862 863 863 863 863 862 862 861 860 859 858 857 855 854 852 850 849 847 844 842 840 838 835 832 829 825 822 818 814 809 806 802 798 793 788 783 779 774 769 764 758 752 746 740
787 791 794 796 799 802 805 807 810 812 815 818 821 823 825 827 829 831 833 835 837 839 841 843 846 848 849 851 852 853 854 855 855 856 857 858 859 859 860 860 861 861 862 862 862 861 861 860 860 859 858 857 855 854 852 851 849 847 845 843 841 839 837 834 831 828 825 822 818 814 809 806 802 798 794 789 784 780 776 771 766 761 755 749 744
787 790 792 795 798 800 803 806 808 811 814 817 820 822 825 827 829 830 833 835 837 839 841 843 845 847 848 849 850 851 852 853 854 855 855 856 857 858 858 859 860 860 860 860 860 860 860 859 858 858 857 855 854 852 851 849 847 846 844 842 840 838 836 834 831 828 825 822 818 814 810 807 803 799 795 791 786 781 777 773 768 763 758 752 747
785 788 790 793 795 798 801 804 807 810 812 815 818 821 823 826 829 830 833 835 837 839 841 842 844 846 847 848 849 850 851 851 853 854 854 855 856 857 857 858 858 859 859 859 859 859 858 858 857 856 855 854 853 851 850 848 847 845 843 841 839 838 835 833 831 828 825 822 819 815 811 808 804 800 797 793 788 783 778 774 770 765 761 756 751
782 785 788 791 794 797 800 803 806 809 812 814 817 819 821 824 827 830 832 834 836 838 840 841 843 844 845 846 847 848 849 850 851 852 853 853 854 855 856 857 857 857 857 857 857 857 857 856 855 854 854 853 851 850 849 847 846 845 843 840 838 837 835 833 831 829 826 823 820 816 812 809 805 802 798 795 791 786 780 776 771 768 764 760 755
779 783 786 789 792 796 799 801 804 807 810 812 815 817 819 822 825 828 830 832 834 837 838 839 841 842 843 844 845 846 847 848 850 851 851 852 853 854 855 855 856 856 856 855 855 855 855 854 854 853 852 851 850 849 848 846 845 844 842 840 838 836 834 833 830 828 826 824 820 817 814 810 806 803 799 796 792 788 784 779 775 771 767 763 759
777 780 783 787 790 794 797 799 802 805 808 810 813 815 817 819 822 825 827 830 832 834 836 837 839 840 841 842 843 844 845 847 848 849 850 851 852 852 853 854 854 854 854 854 853 853 853 852 852 851 851 850 849 848 846 845 844 843 841 839 838 836 834 832 830 828 826 823 821 818 815 811 808 804 800 797 793 790 786 782 778 773 770 766 762
777 779 782 785 788 792 795 798 800 803 806 809 811 813 816 818 821 824 826 828 830 832 833 835 837 838 839 840 841 843 844 845 847 848 849 849 850 851 852 852 852 852 852 852 851 851 851 850 850 849 849 848 847 846 845 843 842 841 840 838 837 835 833 831 829 827 825 823 821 818 815 812 809 806 802 799 795 792 788 784 781 777 773 770 766
776 779 782 784 787 790 793 796 798 801 803 806 809 812 814 817 819 822 824 827 829 830 832 834 835 836 837 838 839 841 842 844 845 846 847 848 849 849 849 849 849 849 849 849 849 849 848 848 847 847 847 846 845 844 843 842 841 839 838 837 835 834 832 831 829 827 825 823 821 819 816 813 810 807 804 800 797 794 790 787 783 780 776 773 769
774 777 780 783 786 789 791 794 796 799 802 805 807 810 813 815 817 820 822 825 827 829 830 832 833 833 835 836 838 840 841 842 844 844 845 846 847 847 847 847 847 847 847 847 847 846 846 845 845 845 844 844 843 842 841 840 839 838 836 835 834 833 831 830 828 826 824 822 820 818 816 814 811 808 805 802 798 795 792 789 785 782 779 776 772
771 774 777 781 784 787 790 793 795 798 801 803 806 809 811 814 816 818 820 823 825 827 829 830 830 832 833 835 836 838 839 840 841 842 843 844 844 844 845 845 845 845 845 844 844 844 843 843 843 842 842 841 841 840 839 838 837 836 835 833 832 831 830 829 827 825 824 822 820 818 816 814 812 809 807 804 801 797 794 791 787 784 781 777 774
770 773 776 779 782 785 788 791 794 797 800 802 805 807 809 812 814 816 818 821 823 825 826 827 829 830 831 833 835 836 837 838 839 840 840 841 841 842 842 842 843 842 842 842 841 841 841 840 840 840 840 839 838 838 837 836 835 834 833 831 830 829 828 827 826 824 823 821 819 818 816 814 812 810 808 805 802 799 796 793 790 787 783 780 777
769 772 775 778 781 784 787 789 792 795 797 800 803 805 808 810 811 813 816 819 821 823 824 825 826 828 830 831 832 833 834 835 836 837 838 838 839 839 840 840 840 840 839 839 839 838 838 837 837 837 837 837 836 835 835 834 833 832 830 829 828 827 826 825 824 823 822 820 819 817 815 813 812 810 808 806 803 801 798 795 792 789 786 783 780
768 771 774 777 780 783 785 788 790 793 795 798 800 802 805 807 809 811 814 816 818 820 821 823 824 826 828 829 830 831 832 833 834 835 835 836 836 837 837 837 837 837 836 836 836 835 835 835 835 835 834 834 834 833 832 831 830 829 828 827 826 825 824 823 822 821 820 819 818 816 814 813 811 809 807 806 804 802 800 797 794 791 788 785 782
767 770 773 777 780 782 784 787 789 792 794 797 799 801 803 805 807 809 811 814 816 818 819 821 822 824 826 827 828 829 830 830 831 832 833 833 833 834 834 834 834 834 834 833 833 833 832 832 832 832 832 831 831 830 830 829 828 827 826 825 824 823 821 820 819 819 818 817 816 815 813 812 810 809 807 805 804 802 800 798 795 793 790 787 784
766 769 772 775 778 780 783 785 788 790 793 795 798 800 802 804 806 807 809 812 814 816 817 819 821 822 823 825 825 826 827 828 828 829 829 830 830 831 831 831 831 831 831 831 830 830 830 830 830 829 829 829 828 828 827 826 825 824 823 822 821 820 819 817 816 816 816 815 814 813 812 811 809 808 807 805 803 802 800 798 796 794 791 789 786
766 769 771 774 777 779 781 784 786 789 791 794 797 799 801 803 804 805 807 810 812 814 815 817 819 820 821 822 822 823 824 824 825 826 826 827 827 828 828 828 828 828 828 828 828 827 827 827 827 827 826 826 826 825 824 824 823 822 821 820 819 818 816 815 814 813 813 812 811 810 810 809 808 807 806 804 803 801 800 798 797 795 793 790 788
765 767 770 772 775 778 780 783 785 788 790 793 795 797 800 801 802 804 805 808 810 812 813 815 816 817 818 819 819 820 821 821 822 823 823 824 824 825 825 825 825 825 825 825 825 824 824 824 824 823 823 823 822 822 821 821 820 819 818 817 816 815 814 813 812 811 811 810 809 808 807 807 806 805 804 803 802 801 799 798 797 795 793 791 789
764 766 768 770 773 776 779 782 785 787 790 791 793 795 797 799 800 802 804 806 808 810 811 813 814 815 816 816 817 817 818 819 819 819 820 821 821 822 822 822 822 822 822 822 821 821 821 821 820 820 820 819 819 819 818 818 817 816 816 814 813 812 811 811 810 809 808 807 806 805 805 804 804 803 802 802 801 800 799 797 796 795 794 792 790
762 764 766 768 771 774 777 781 784 786 788 790 791 793 794 796 797 799 802 804 806 807 809 810 811 812 813 814 814 814 815 816 816 816 817 818 818 818 819 819 819 819 818 818 818 818 817 817 817 816 816 816 816 815 815 815 814 813 813 812 811 810 809 808 807 806 806 805 804 803 802 802 801 800 800 800 799 798 797 796 795 794 793 792 791
761 763 765 767 770 773 776 779 782 785 786 788 789 791 792 793 795 797 799 801 803 804 806 807 808 809 810 810 811 812 812 813 813 814 814 814 815 815 815 815 815 815 815 815 814 814 814 814 813 813 813 813 812 812 812 811 811 810 809 809 808 807 806 806 805 804 803 802 802 801 799 799 798 797 797 797 797 796 795 795 794 793 792 791 790
759 762 764 766 768 771 773 776 779 782 784 786 787 789 790 792 794 796 797 799 801 802 803 804 805 806 807 807 808 809 810 810 810 811 811 811 812 812 812 812 812 812 811 811 811 811 811 810 810 810 809 809 809 809 808 808 807 807 806 805 805 804 803 803 802 801 800 799 799 798 797 796 795 795 794 794 794 794 793 792 792 791 791 790 789
758 760 762 764 766 769 771 774 777 780 782 784 785 787 789 790 792 794 795 797 798 799 800 801 802 803 803 804 805 806 806 806 807 807 807 808 808 808 808 809 808 808 808 808 808 807 807 807 807 806 806 806 805 805 805 804 803 803 802 802 801 801 800 799 799 798 797 796 795 795 795 794 792 792 791 791 791 791 790 790 790 789 789 788 788
757 759 761 763 765 768 770 773 776 778 780 782 784 785 786 788 790 791 792 793 795 796 797 798 799 799 800 801 802 802 802 803 803 804 804 804 805 805 805 805 805 805 805 804 804 804 804 803 803 803 802 802 802 801 801 800 800 800 799 799 798 797 797 796 796 795 794 793 792 792 792 791 790 789 789 789 789 788 787 787 787 787 787 786 786
Wind_Speed
24 23 22 21 21 21 21 20 21 21 21 21 20 19 18 15 15 17 17 16 15 14 14 15 15 16 16 16 15 15 15 16 16 16 17 18 17 17 17 18 19 19 19 18 18 19 20 21 21 20 19 18 17 16 17 17 18 20 21 22 24 23 20 15 10 15 26 32 32 36 37 35 36 37 36 37 39 39 39 39 39 39 38 38 37
24 23 22 21 21 22 22 22 22 23 23 21 20 20 18 17 17 18 17 16 15 14 14 15 15 15 16 16 16 15 15 16 15 15 16 17 17 17 18 18 18 17 17 16 16 16 18 19 20 19 18 18 17 17 18 19 20 22 24 24 26 27 24 21 18 16 23 33 36 36 37 35 36 39 37 36 39 39 38 40 40 39 39 38 38
23 22 22 22 22 23 23 24 25 24 23 22 21 20 19 18 19 18 17 16 15 14 14 14 15 16 16 16 16 15 15 15 14 13 14 15 16 16 17 17 16 15 15 15 14 15 16 18 18 18 17 17 17 17 18 20 22 24 26 26 27 27 25 23 23 20 22 31 36 36 38 37 36 39 38 36 37 36 38 40 40 39 39 38 38
24 23 23 24 24 24 25 26 26 25 24 23 22 21 20 20 20 18 17 15 14 14 14 14 15 16 16 16 16 15 15 15 14 13 13 13 14 14 14 14 14 14 13 12 12 13 15 17 17 16 16 16 16 17 18 21 23 25 27 27 27 26 24 23 24 23 24 30 36 36 36 37 37 37 38 37 36 36 37 39 39 39 39 38 38
25 25 25 25 25 26 27 28 27 26 25 24 23 22 22 22 20 17 15 13 13 13 14 15 16 16 16 16 16 15 14 14 14 14 13 12 12 12 12 11 11 11 11 10 9 10 13 16 16 15 15 15 16 17 20 21 24 26 27 27 26 25 24 23 25 26 25 29 35 37 36 36 36 36 36 36 37 39 39 38 36 37 39 39 39
26 26 26 26 27 27 28 29 28 27 26 25 24 24 23 22 19 15 13 11 11 13 15 17 17 17 17 16 16 15 14 13 13 13 13 12 11 11 10 9 8 9 9 8 7 8 12 15 15 15 14 15 17 18 21 23 25 26 26 26 26 25 25 25 26 27 28 29 32 35 35 35 34 36 37 35 35 38 40 39 35 35 38 39 41
27 27 27 27 28 29 29 29 28 27 26 26 25 25 23 21 18 15 11 9 10 13 16 18 18 18 17 17 16 15 14 13 13 12 12 11 10 10 8 7 6 6 6 5 5 6 9 13 14 14 14 15 17 19 22 24 25 25 24 25 26 26 26 27 28 28 29 29 30 31 33 34 34 35 36 36 33 32 35 36 34 35 36 36 38
29 28 28 29 29 29 30 29 28 27 26 27 26 25 23 20 17 14 11 9 11 13 16 18 19 19 18 17 16 15 14 13 13 12 11 10 9 9 7 6 4 3 3 3 3 4 6 10 13 14 15 15 17 20 22 24 24 23 23 24 25 26 27 28 29 29 28 29 30 30 31 34 35 35 36 35 30 28 31 33 34 37 38 35 34
30 29 29 29 30 30 30 29 28 28 28 28 28 26 23 20 17 14 11 11 12 14 16 18 19 19 18 17 16 15 14 14 13 11 9 9 8 7 6 5 4 2 1 1 1 2 3 7 11 14 14 15 17 19 20 21 21 22 23 24 25 26 27 28 29 28 28 27 29 30 28 29 33 34 33 32 30 31 36 36 34 35 39 38 35
31 31 30 30 31 31 30 30 30 29 29 29 28 26 23 20 17 14 12 13 14 15 16 18 19 19 19 18 16 15 15 14 13 10 8 7 6 6 5 5 4 3 1 1 2 3 2 4 9 13 13 14 17 18 19 19 19 20 21 23 24 26 27 28 28 28 27 26 27 29 25 25 33 35 33 35 36 36 37 37 34 35 36 33 33
32 32 32 32 32 32 31 31 31 30 30 29 28 26 23 20 17 15 14 15 16 16 17 17 18 18 18 17 16 15 14 13 12 10 8 7 5 4 4 4 4 3 2 2 3 4 3 3 8 12 13 14 17 18 17 18 18 18 20 21 24 26 27 27 28 28 26 25 27 29 25 26 35 39 38 39 38 36 37 37 33 32 32 27 26
32 32 33 33 33 33 32 32 31 30 29 28 27 26 23 21 18 15 15 16 17 17 17 17 18 18 17 17 15 15 14 12 10 9 7 6 4 3 3 3 3 2 1 2 3 4 3 4 8 10 12 15 17 16 16 18 18 18 20 23 25 26 26 25 26 26 26 26 27 31 31 31 36 40 42 42 40 39 39 35 30 30 30 27 26
31 32 33 35 34 33 32 32 31 31 30 29 28 27 24 21 19 16 16 17 18 18 18 18 18 17 16 16 15 14 13 11 9 8 6 5 4 3 2 2 2 2 2 2 3 2 2 4 7 9 12 14 15 14 16 19 19 19 21 24 26 27 27 26 25 25 26 26 27 31 34 34 36 41 44 43 42 41 37 33 32 30 29 31 33
31 31 33 34 34 34 33 33 32 32 31 31 30 27 24 21 19 17 17 18 19 19 19 18 18 17 16 15 15 14 12 10 8 6 5 4 3 3 3 3 3 3 3 2 1 0 2 4 7 9 13 14 12 14 17 19 20 20 22 25 27 28 28 28 27 26 26 27 27 31 34 35 37 41 44 43 42 41 38 38 39 36 35 37 38
29 30 31 32 33 34 34 34 34 33 32 31 30 27 24 21 19 18 18 18 19 19 19 18 17 16 15 14 14 13 11 9 7 5 4 4 3 3 4 4 3 3 2 2 1 1 2 4 7 10 13 12 11 13 17 20 20 21 24 26 28 28 28 29 29 27 27 27 28 31 34 36 37 40 43 44 42 41 41 41 40 40 40 39 38
28 30 31 32 33 34 34 34 33 33 32 32 30 28 25 21 20 19 19 19 19 18 18 17 16 15 14 13 12 11 9 7 5 3 2 1 1 1 2 2 3 3 3 3 2 1 2 4 7 10 12 12 12 13 16 19 20 22 25 27 28 28 28 28 28 27 26 26 28 30 32 35 37 39 42 43 43 43 43 40 38 39 38 33 31
30 31 32 33 33 34 34 34 33 33 33 32 31 28 25 23 21 21 21 21 20 19 17 16 15 14 14 12 11 10 9 7 5 3 2 2 1 1 2 4 4 4 4 3 2 0 2 5 8 10 12 12 12 13 16 18 19 22 25 27 28 29 29 29 29 27 25 25 27 30 32 35 37 40 42 42 43 44 40 37 38 40 36 26 21
30 32 33 34 35 35 35 35 34 34 33 32 31 29 26 25 23 23 22 22 21 19 18 17 16 14 13 12 11 11 10 8 6 4 3 3 2 3 4 5 6 5 4 3 1 1 2 5 8 11 12 13 11 13 16 17 18 21 23 26 28 30 30 31 31 31 29 27 28 30 33 36 39 42 43 43 44 43 38 36 38 39 37 27 25
32 33 34 35 35 35 35 34 34 34 33 33 32 30 28 26 25 24 22 21 21 20 19 18 17 15 14 13 12 11 10 8 6 5 4 4 4 5 5 6 6 5 4 3 1 1 2 5 8 11 12 12 11 12 15 16 18 21 22 24 27 29 31 31 32 33 33 31 32 33 36 39 40 43 44 44 45 44 40 38 37 37 36 34 33
33 34 34 34 35 35 34 34 34 35 34 34 33 31 30 28 27 25 22 20 20 20 19 19 18 17 15 13 11 10 9 8 7 5 5 4 5 6 7 6 6 6 4 2 1 1 3 5 8 10 12 12 11 12 15 16 18 20 21 23 25 27 30 31 31 32 34 33 33 35 37 39 41 43 44 45 46 46 43 40 39 38 37 35 35
33 33 33 34 34 34 34 35 35 34 34 34 33 32 31 30 28 26 23 20 20 20 19 19 18 17 15 12 10 9 7 7 6 5 5 4 6 7 7 7 6 5 4 3 3 4 5 6 8 10 12 12 11 13 15 16 17 19 20 22 24 27 29 31 32 32 34 34 34 35 37 39 41 43 45 47 48 47 45 44 43 41 39 36 36
33 33 33 34 34 34 34 34 34 33 33 34 34 34 33 31 29 26 24 22 20 20 20 19 18 16 13 11 9 7 6 5 5 5 4 4 6 7 7 6 5 4 2 2 3 5 7 8 9 10 12 12 12 14 16 17 17 19 20 21 24 28 30 31 32 34 35 35 35 36 37 39 41 44 46 48 49 48 46 46 46 44 41 38 36
33 33 33 33 33 34 34 33 32 33 33 33 33 34 33 32 29 27 26 24 21 20 20 19 18 16 14 12 10 8 5 3 3 3 3 4 6 7 7 5 3 2 1 2 4 6 8 8 9 11 12 12 13 14 16 17 18 18 20 21 24 28 30 33 34 34 35 35 35 36 37 38 40 43 46 48 49 48 46 46 47 45 43 41 39
33 32 32 32 33 33 32 31 32 33 33 33 33 33 34 33 31 28 27 24 22 21 21 20 19 17 15 14 12 10 8 5 3 2 2 3 5 7 6 5 2 0 1 3 5 8 9 9 10 11 12 13 14 15 16 17 18 18 19 20 23 27 30 33 35 35 35 35 34 35 36 38 40 42 44 46 47 46 44 44 45 44 42 42 40
33 32 32 32 32 31 30 31 32 32 33 33 32 32 33 33 31 29 28 26 24 23 22 22 21 19 17 16 14 12 11 8 6 4 3 2 4 5 6 5 3 2 2 4 7 9 10 10 11 11 12 13 14 15 16 17 18 18 18 19 22 25 28 31 34 35 35 34 34 34 35 37 39 40 42 44 45 45 44 44 44 44 44 44 43
32 31 31 31 30 30 30 30 31 31 32 32 32 32 33 32 31 30 29 26 25 24 23 23 22 21 19 17 15 13 12 11 10 8 6 4 3 4 5 5 4 4 4 5 7 9 10 11 11 12 13 14 14 15 17 18 19 19 19 19 21 24 26 29 32 33 33 33 34 34 34 36 38 40 42 43 45 45 45 45 45 45 46 45 43
32 31 30 30 29 30 30 30 30 30 31 31 31 31 31 31 31 31 29 27 26 25 24 24 23 22 20 18 16 15 14 13 13 12 9 8 6 5 6 6 6 6 7 7 9 10 10 10 11 12 13 14 15 15 16 18 19 20 19 19 20 22 25 27 30 31 32 33 34 35 35 35 37 40 43 44 44 44 44 44 42 43 44 42 38
32 31 30 30 30 30 31 31 31 31 31 31 31 31 31 31 32 31 31 30 29 28 27 26 25 23 21 19 18 16 15 16 16 14 13 10 8 7 8 8 9 9 9 10 10 11 11 11 11 12 13 15 15 16 17 18 19 20 20 21 21 22 24 26 29 31 33 35 36 36 36 36 37 39 42 43 44 44 44 43 42 41 41 39 34
30 29 29 29 29 29 30 30 31 31 30 30 30 30 31 31 31 31 30 30 30 29 28 27 25 22 20 19 17 16 16 15 13 12 12 11 10 9 9 10 10 11 11 12 12 12 12 11 11 12 13 15 16 17 18 20 21 21 22 22 22 22 24 26 28 31 33 35 36 36 36 36 37 39 40 42 44 45 43 42 41 40 40 37 33
28 28 29 29 29 29 29 30 30 31 31 30 29 27 28 29 29 28 28 28 28 27 25 23 21 19 19 18 16 15 15 12 8 7 10 12 12 11 11 11 12 12 13 13 13 13 13 12 12 12 14 15 17 18 19 20 22 22 23 24 23 23 24 25 26 29 31 34 36 36 35 35 36 38 39 39 43 45 43 41 41 40 40 37 34
28 28 29 29 30 30 30 29 30 30 30 30 29 27 26 25 26 26 26 26 26 25 23 21 19 18 18 17 15 14 14 13 10 8 9 11 13 13 13 13 12 12 12 13 13 13 13 13 13 13 14 15 17 18 18 19 21 22 23 24 24 23 23 24 25 27 29 33 35 35 35 35 35 37 37 37 39 43 44 43 42 40 39 37 33
29 29 29 29 30 31 30 29 29 29 28 29 29 29 27 24 22 23 24 25 26 25 24 23 22 20 19 18 16 15 15 14 13 12 11 11 13 14 14 13 12 11 12 12 13 14 14 14 14 14 15 16 17 17 18 19 20 21 22 23 24 24 23 23 24 25 27 30 33 34 35 34 34 35 36 36 36 39 42 43 42 40 38 36 34
31 30 29 29 30 31 30 30 30 29 29 29 29 29 29 26 24 23 23 23 24 24 24 23 23 21 20 19 18 17 16 14 13 13 13 13 13 14 14 13 12 12 12 13 14 15 15 15 15 16 16 17 17 17 18 19 19 20 20 21 22 23 24 23 23 24 25 27 30 33 33 34 34 34 36 36 35 36 38 40 41 40 37 36 35
32 32 32 31 31 31 30 30 31 30 30 30 30 30 30 29 27 25 22 20 20 21 22 22 22 21 20 20 19 18 16 14 13 13 14 14 13 14 14 13 13 13 14 15 16 17 16 16 17 17 18 18 17 18 19 19 19 19 19 20 21 22 23 23 23 23 24 25 28 31 32 33 33 33 35 35 34 35 37 38 39 39 36 35 35
31 31 32 33 32 31 30 31 32 31 30 31 31 31 31 29 26 25 23 22 21 20 20 20 20 20 19 18 17 16 16 15 14 14 14 14 13 13 14 15 15 16 16 17 18 18 18 18 18 18 18 19 19 18 19 19 19 18 18 19 20 20 22 23 23 23 24 24 26 28 31 31 32 31 32 33 33 33 35 37 36 36 35 34 34
29 30 31 32 32 32 31 32 32 32 32 32 32 32 31 30 28 26 25 24 22 21 19 18 18 17 17 17 17 16 16 16 15 14 14 13 13 14 15 17 17 17 18 19 20 20 19 19 19 19 19 19 19 18 18 19 19 18 18 18 19 19 20 21 22 23 23 23 23 25 28 30 30 31 31 32 33 32 33 35 35 34 34 34 32
30 31 32 32 32 31 31 31 32 33 33 33 32 31 30 29 29 27 26 24 23 21 19 18 17 17 18 18 17 18 18 17 16 15 14 14 14 16 17 18 18 19 19 20 20 21 21 20 20 20 19 19 18 17 18 18 18 18 18 18 18 19 19 19 20 21 22 22 22 23 25 27 28 29 29 30 32 33 33 34 35 34 34 34 34
33 33 34 33 31 30 29 29 30 31 32 32 31 30 30 29 28 27 26 25 23 21 19 18 18 19 19 17 18 19 19 18 17 17 17 17 18 19 20 20 20 21 21 21 21 22 22 21 21 20 19 18 17 17 17 18 18 18 19 19 19 19 19 18 19 19 20 20 20 20 22 24 26 27 27 27 29 31 31 32 33 33 32 33 33
31 32 33 33 32 31 30 30 30 30 30 30 29 29 29 28 27 26 25 24 22 21 20 20 20 21 19 18 18 19 20 20 20 20 20 21 21 22 22 23 23 23 24 23 24 24 24 23 21 20 19 18 17 16 16 17 18 19 20 20 20 21 20 19 19 18 18 19 19 19 20 22 23 25 25 25 26 28 29 30 31 31 30 30 30
30 30 32 32 32 31 31 31 31 31 31 30 29 28 28 28 28 27 25 24 23 23 22 22 23 22 20 18 17 18 19 21 22 22 22 23 23 24 24 25 25 25 25 25 24 24 23 22 20 19 18 17 16 16 16 17 19 20 21 21 22 22 22 21 20 19 18 18 18 18 18 19 21 22 24 24 24 25 26 27 29 30 29 28 27
29 30 31 32 31 30 30 30 31 32 32 32 31 30 30 30 29 28 26 25 24 24 23 24 24 22 20 19 18 18 19 21 22 23 23 23 24 24 25 25 24 24 24 23 22 21 20 18 17 16 16 16 16 16 17 18 19 20 22 22 23 23 24 23 22 21 19 18 17 17 17 17 18 20 21 23 23 23 24 25 26 28 29 28 26
29 30 31 31 31 30 29 30 30 30 30 30 30 30 30 30 28 27 25 25 25 24 24 24 24 23 21 20 19 20 21 22 23 24 24 24 24 24 23 23 22 21 21 20 19 18 17 16 15 15 16 16 17 17 18 19 20 21 22 23 24 24 25 25 25 23 21 19 18 17 16 16 16 17 18 20 21 22 22 23 24 25 27 28 27
29 30 31 32 31 31 30 30 29 29 29 29 28 28 29 28 27 26 25 25 25 24 24 25 24 23 22 21 21 21 22 23 24 25 24 23 23 22 21 20 20 20 19 18 17 16 15 15 14 15 16 16 17 18 19 19 20 22 23 24 25 25 25 26 26 25 23 21 19 18 16 16 16 16 16 18 19 20 21 22 22 23 24 25 26
29 30 31 32 31 30 30 30 29 29 28 28 27 27 28 28 27 26 25 25 25 25 25 24 24 23 22 22 23 23 23 23 24 24 23 22 21 21 20 20 19 19 18 17 17 16 16 17 16 16 17 17 18 19 20 20 21 23 24 25 26 26 26 27 27 26 24 22 22 21 19 17 16 16 15 16 17 18 19 20 21 21 22 22 24
30 31 31 31 29 28 28 28 28 28 27 27 26 26 27 27 26 25 26 26 26 25 24 23 22 22 23 23 23 24 23 23 23 23 23 22 22 21 20 19 18 18 18 18 18 18 19 19 19 19 19 18 18 19 20 21 22 23 24 26 27 27 27 27 27 26 25 24 23 23 21 20 18 17 15 15 15 16 17 18 18 19 19 20 21
31 31 32 31 30 28 27 27 26 26 26 26 26 26 26 26 25 25 26 27 26 25 25 24 23 23 23 23 23 23 22 22 22 22 22 22 22 21 19 18 17 17 18 18 18 18 19 19 19 19 19 18 18 18 19 20 21 22 24 25 27 27 27 26 26 26 25 24 23 23 22 22 21 19 17 15 15 15 15 16 16 16 16 17 18
31 31 32 32 31 29 27 26 25 25 25 25 25 26 25 25 25 26 27 27 26 26 27 26 26 26 25 24 23 22 22 21 21 21 21 22 22 21 19 18 18 19 19 18 18 18 19 19 19 19 19 18 18 17 17 18 19 20 22 24 25 25 25 24 25 26 25 24 23 23 22 22 22 21 20 17 15 15 15 14 14 15 15 14 15
30 30 30 31 31 29 28 26 26 25 25 24 24 25 25 24 25 27 27 26 25 26 26 26 26 26 25 23 22 22 21 21 21 20 21 21 21 20 20 19 20 20 19 18 18 18 19 19 19 19 18 18 19 19 19 20 21 22 22 23 23 23 23 23 24 24 24 24 23 23 22 22 22 22 21 20 18 17 16 15 14 14 13 13 13
30 30 30 31 31 29 28 27 26 26 25 24 24 24 24 24 24 25 24 23 23 24 24 25 25 24 23 22 22 22 23 23 22 21 21 21 21 21 20 20 21 20 20 19 19 18 18 18 18 18 17 17 17 18 19 20 21 22 22 23 22 22 22 22 22 23 24 24 24 23 22 23 23 22 22 22 21 20 19 17 16 14 13 13 13
30 30 31 31 31 29 27 26 26 25 25 24 24 24 24 24 23 22 21 20 20 21 23 25 25 24 22 22 22 23 24 24 23 23 22 22 22 21 21 21 21 21 20 20 19 18 18 18 18 18 18 18 17 17 18 19 19 19 19 20 20 20 20 20 21 21 23 24 25 23 22 23 24 24 24 23 22 22 22 21 18 16 15 14 13
29 30 30 30 28 27 26 26 25 24 22 22 23 24 24 24 22 20 19 18 19 21 23 24 23 22 22 22 22 23 24 24 24 24 23 23 22 22 22 22 21 21 20 20 20 19 19 19 19 19 18 18 18 18 18 18 17 17 17 17 18 18 18 19 20 21 22 24 25 25 23 23 24 25 25 24 24 24 25 24 22 20 18 16 15
Wind_Direction
169 170 170 173 173 172 172 172 172 171 169 168 167 164 163 162 162 162 160 160 161 162 161 160 159 157 153 150 146 141 138 136 132 124 114 105 96 92 94 100 100 93 88 84 77 69 63 60 56 53 51 50 50 48 41 32 24 18 12 6 3 0 351 336 306 300 320 327 324 324 329 328 326 328 328 326 329 330 328 327 324 321 319 317 315
168 170 170 173 174 172 171 171 171 171 168 168 168 166 165 164 164 163 161 161 164 166 165 162 161 160 157 153 149 145 142 140 137 128 117 108 100 95 94 98 99 93 88 83 77 69 61 57 54 50 48 49 47 42 32 23 17 12 8 4 360 359 356 343 328 310 313 323 325 324 328 329 324 326 328 325 326 326 325 324 323 320 317 315 313
168 170 171 173 173 172 172 172 171 171 170 170 169 167 167 166 165 165 163 162 165 169 169 166 164 163 160 156 152 148 145 144 141 133 121 112 105 101 96 94 95 92 87 83 77 68 59 54 50 47 47 46 42 35 25 17 11 6 4 2 357 356 357 348 335 320 308 316 324 324 326 327 324 325 327 325 324 323 320 320 320 317 315 314 311
169 171 172 172 171 172 173 172 172 172 171 171 170 169 168 166 165 165 163 163 167 172 173 171 169 166 162 158 155 151 149 147 145 138 127 116 109 107 102 95 92 89 87 84 77 67 57 51 46 44 43 41 34 25 17 10 5 2 0 359 356 352 351 348 339 327 313 312 320 323 324 324 323 325 326 325 323 321 318 317 317 315 313 312 310
171 174 173 170 171 174 173 172 172 172 171 171 171 170 168 165 165 166 164 165 171 176 178 175 173 170 165 161 158 155 153 151 150 144 134 123 115 110 106 99 92 88 86 83 77 67 55 47 43 41 37 31 24 13 7 3 360 358 358 356 354 349 345 344 340 332 322 314 316 321 324 323 323 325 326 325 321 320 318 316 315 314 312 311 310
173 175 174 172 172 173 172 172 174 173 172 172 172 170 168 166 165 165 165 168 173 178 181 178 176 173 167 164 163 159 157 156 155 150 143 134 123 116 112 105 96 90 87 83 76 66 54 45 39 37 30 20 14 6 1 359 357 356 357 355 351 346 342 341 339 334 327 319 317 319 323 324 323 323 326 326 321 318 317 315 313 312 312 312 311
174 175 175 174 173 172 173 174 174 173 174 173 171 170 168 167 165 162 165 172 176 178 179 177 175 173 168 165 164 163 160 160 159 155 149 141 130 124 121 116 106 98 95 87 75 65 53 43 37 33 27 18 10 5 1 358 355 354 355 352 348 344 342 340 337 333 328 323 320 320 322 324 323 321 324 326 322 318 317 316 313 312 313 311 309
173 175 176 174 173 173 174 175 175 174 174 172 171 169 167 166 164 162 164 172 174 173 174 174 172 170 168 166 165 163 162 163 161 155 149 142 135 130 128 128 123 117 118 100 70 62 50 39 34 28 22 15 7 3 360 355 351 351 351 349 346 345 343 340 336 332 329 325 322 323 323 323 323 323 325 326 323 320 320 316 311 311 313 311 309
173 175 176 174 174 174 175 175 175 174 173 171 170 168 166 164 162 161 164 169 169 167 168 170 169 167 166 165 164 163 163 163 162 158 151 143 136 131 132 138 143 161 165 131 14 26 39 29 24 20 13 7 2 358 356 354 351 350 349 348 347 345 343 339 336 333 330 327 324 325 324 322 322 324 324 325 322 319 321 318 310 308 310 309 308
173 175 175 175 176 176 175 175 174 173 172 171 169 167 165 163 161 161 162 166 165 163 163 166 167 167 165 164 164 163 164 165 164 165 161 154 146 135 137 140 150 184 230 272 287 311 339 1 7 6 1 358 356 354 355 354 353 350 347 347 347 345 341 338 336 334 331 327 324 325 322 318 321 323 321 321 322 321 321 318 311 310 312 310 310
174 175 175 176 177 176 175 174 173 172 172 169 167 167 166 163 161 161 162 163 162 161 161 162 164 166 165 164 163 163 164 166 167 170 170 167 165 153 153 155 150 171 231 279 287 298 301 324 350 353 353 353 351 352 355 353 350 348 346 346 345 344 342 338 336 335 332 327 325 325 320 315 320 323 321 321 323 321 319 317 312 312 316 314 312
174 174 174 174 176 176 175 173 170 170 170 168 168 169 168 164 161 162 163 163 162 161 162 161 162 164 164 163 162 163 163 163 166 171 171 169 169 160 162 169 164 173 249 311 312 303 292 319 340 344 350 351 347 348 352 349 346 346 345 345 346 348 349 344 340 338 334 329 325 324 322 319 320 323 323 322 322 320 318 315 312 311 312 312 310
174 173 172 173 175 175 173 171 170 171 172 172 172 171 169 165 162 164 164 163 162 162 163 162 161 162 164 163 161 161 161 161 163 169 170 169 172 172 177 191 202 235 277 315 329 311 279 317 334 342 349 348 345 348 349 344 342 343 343 344 348 352 354 352 350 347 341 334 326 325 327 324 320 322 326 325 322 320 319 316 314 312 310 310 309
174 173 172 173 174 174 172 171 171 173 174 173 172 171 169 166 163 165 165 162 162 163 164 164 162 163 165 164 162 161 160 161 166 172 179 191 207 224 241 248 245 253 267 291 319 266 271 313 333 344 347 346 345 347 346 341 340 341 342 345 349 353 355 354 354 352 347 342 332 329 333 332 325 325 330 330 325 321 320 318 317 314 310 310 309
171 172 171 172 173 172 172 172 172 174 173 172 172 170 169 166 164 165 165 162 162 162 162 163 163 164 167 167 165 164 162 165 175 188 201 218 237 248 251 248 240 236 239 231 194 212 283 321 338 343 345 347 345 344 343 340 339 340 343 345 348 353 355 355 354 351 348 346 341 337 339 339 335 334 335 334 329 326 324 319 316 315 312 310 309
169 170 170 172 173 173 173 172 172 173 172 171 171 170 168 166 165 163 160 158 159 160 159 160 161 161 166 169 169 165 164 169 177 184 194 208 237 243 220 200 190 185 186 179 169 221 306 336 342 343 348 350 346 343 341 339 339 341 344 345 348 352 355 355 355 351 348 346 345 344 345 345 344 342 340 338 334 332 329 324 321 321 315 308 307
170 171 172 173 174 174 174 174 173 172 172 171 171 170 168 166 163 160 157 155 157 158 156 155 156 157 158 163 164 158 153 151 146 137 120 95 88 134 155 161 161 158 163 167 163 258 325 344 346 347 350 347 343 342 340 339 342 345 345 346 348 350 352 354 353 352 350 347 346 347 349 350 350 347 345 342 339 337 333 327 326 325 318 310 310
173 173 174 175 175 176 177 177 174 172 172 173 171 170 168 166 162 160 158 155 154 154 152 150 150 150 150 152 151 145 140 135 129 117 95 79 85 109 135 151 156 155 160 167 173 278 322 343 349 349 346 341 340 343 342 341 346 349 348 347 347 347 349 350 350 349 349 348 346 348 350 353 352 350 348 345 343 343 337 328 327 324 318 315 314
176 176 176 176 176 177 178 178 176 175 175 175 174 172 170 166 163 160 157 155 153 153 152 150 148 146 145 143 140 137 132 127 122 107 86 83 95 107 120 136 146 150 158 171 186 259 314 336 346 346 341 337 336 341 344 346 349 353 353 351 348 347 347 349 349 348 348 348 348 348 350 353 353 350 349 347 346 346 340 332 331 328 323 319 317
177 177 177 176 177 178 179 180 180 180 179 178 176 175 173 169 164 161 158 157 157 157 155 151 148 145 144 142 139 135 128 121 113 98 86 95 113 117 118 125 131 133 131 126 105 359 333 332 339 341 337 334 332 337 344 349 351 354 357 356 351 348 348 350 351 350 349 349 349 348 349 351 352 350 349 348 347 346 343 339 338 335 330 324 320
177 177 177 177 178 180 181 183 183 183 182 180 178 178 177 175 170 167 166 165 165 164 162 158 154 151 150 150 146 140 131 118 106 94 90 110 129 131 128 127 126 121 106 78 42 9 349 339 337 337 336 334 332 336 344 348 350 353 358 359 357 354 353 353 353 353 353 352 351 351 350 350 351 350 349 348 347 346 345 344 343 340 336 331 326
177 177 177 178 180 180 182 183 184 183 183 182 180 180 180 180 177 174 174 175 174 174 171 168 165 164 164 165 161 154 144 124 106 98 95 117 137 139 135 130 123 113 96 54 18 358 346 341 337 333 334 335 333 335 341 345 347 351 356 359 1 0 360 358 356 355 355 354 352 351 351 349 349 349 349 348 347 347 346 346 345 344 341 338 334
176 177 178 179 180 181 182 183 182 182 183 184 184 183 183 183 182 181 180 180 181 182 181 179 179 181 183 186 185 181 172 153 127 112 106 122 143 148 144 140 134 111 64 11 355 346 338 335 333 329 329 333 334 336 340 342 343 347 353 358 1 2 2 1 359 357 356 355 352 350 350 349 347 347 348 348 347 347 347 347 347 346 345 343 342
175 176 178 179 180 181 182 182 182 184 185 185 186 185 185 185 185 185 184 185 189 191 190 190 191 193 197 200 200 201 201 199 197 176 136 134 147 157 161 162 164 174 341 340 339 338 332 327 326 324 324 328 333 336 339 341 342 344 350 355 359 0 1 1 1 358 356 354 352 349 349 350 348 347 348 348 348 348 347 347 348 348 347 346 347
175 176 177 178 180 181 182 182 183 185 186 187 187 186 185 185 186 187 187 190 196 198 196 197 199 201 206 208 207 209 213 215 220 224 217 187 164 170 180 186 199 239 290 316 325 330 328 322 320 321 320 322 328 333 338 342 342 343 346 351 355 358 360 0 0 358 355 353 350 348 349 352 351 349 349 350 350 350 349 349 350 351 351 352 353
175 176 177 179 180 180 180 180 183 186 187 188 190 189 187 187 187 188 190 195 199 201 200 201 204 207 212 215 216 219 222 226 230 232 232 231 214 195 195 200 216 247 276 299 313 321 322 317 315 317 317 317 321 328 335 340 343 343 344 347 351 355 358 358 359 357 354 351 350 349 350 353 354 353 353 353 353 353 351 350 350 352 354 354 354
175 175 176 178 179 180 180 180 182 184 185 186 188 189 191 191 189 189 192 197 200 203 203 203 206 211 215 220 224 227 230 234 238 237 235 237 236 224 215 215 226 248 270 286 301 313 316 312 309 312 315 316 319 324 330 335 339 342 345 347 349 352 355 356 356 357 354 352 351 351 352 354 356 355 355 355 354 354 355 353 351 352 354 355 354
175 176 176 177 178 180 181 181 182 183 185 186 187 189 191 192 193 195 199 201 201 200 202 205 208 212 216 220 226 231 237 242 244 242 239 237 238 235 231 228 234 248 265 277 290 304 311 308 305 307 312 317 320 324 328 332 336 341 344 347 348 350 352 354 355 357 356 354 353 353 353 355 356 356 356 356 355 355 357 356 355 354 354 356 357
175 175 176 177 178 179 181 183 184 185 185 186 190 194 197 198 200 203 206 205 202 200 201 205 209 214 219 223 229 236 243 247 248 248 244 240 238 241 242 240 241 249 260 271 282 296 305 307 307 309 315 320 323 325 328 331 335 340 344 347 348 349 350 352 353 354 355 355 354 354 353 354 355 356 356 357 357 358 358 357 357 357 357 357 358
172 174 175 176 178 180 182 184 186 186 186 186 188 194 199 203 206 207 206 206 204 204 205 208 212 217 223 228 234 241 248 252 254 252 246 239 236 239 244 245 246 251 258 267 277 288 297 303 306 312 318 322 323 326 327 328 332 337 342 345 347 348 348 350 351 351 352 354 355 354 354 353 354 356 356 356 358 359 360 359 359 360 360 359 358
171 175 177 179 182 183 184 185 185 185 186 187 187 189 193 198 204 207 207 207 209 211 216 220 224 228 232 237 243 249 254 256 253 244 238 235 233 237 243 245 246 251 258 264 271 280 291 297 300 308 316 319 321 324 324 323 327 333 337 341 345 348 347 347 348 349 350 352 354 355 355 354 354 356 357 356 358 359 360 0 1 1 1 1 359
174 177 180 182 184 185 185 185 184 185 185 186 188 190 190 190 197 206 210 212 216 221 224 228 232 236 240 243 249 256 260 257 248 239 236 234 232 234 240 244 245 250 258 263 269 277 286 291 295 303 313 317 319 322 322 320 323 329 332 335 340 346 347 345 345 346 348 350 352 354 356 355 354 355 357 358 359 360 359 359 0 0 0 2 2
180 180 181 182 183 184 185 185 184 184 185 185 187 190 191 191 195 203 209 213 219 225 230 233 236 238 240 244 250 257 259 256 247 241 240 240 236 233 237 241 244 251 259 264 271 278 283 286 291 300 310 315 318 321 320 318 320 325 328 331 335 341 346 345 343 344 346 349 351 354 355 356 355 355 357 359 1 1 1 360 360 360 0 0 1
184 183 183 183 183 184 185 185 185 186 187 187 189 191 195 197 199 201 202 205 213 222 228 233 235 238 242 246 250 252 251 245 240 239 242 243 240 236 235 238 243 251 259 264 270 277 282 286 292 300 308 313 316 318 317 316 317 320 324 329 333 339 345 346 344 344 345 347 350 352 354 356 356 355 355 358 1 2 2 2 1 360 359 359 359
184 184 185 185 184 184 186 187 187 187 187 188 190 193 197 200 201 203 204 206 210 215 221 226 233 238 241 242 242 241 238 233 232 236 240 242 239 234 233 238 244 252 259 264 271 277 283 288 294 301 307 311 313 314 312 313 314 316 319 324 329 336 343 346 346 345 345 346 348 350 353 355 356 355 354 356 359 1 2 2 2 1 360 359 360
183 184 185 186 186 187 188 189 188 189 189 191 193 196 200 202 203 206 210 213 215 217 220 225 231 233 231 229 229 229 228 228 233 239 239 238 236 234 237 243 249 255 260 265 271 277 283 288 295 301 306 310 311 310 309 309 311 313 313 316 321 327 335 342 346 346 345 345 346 348 351 354 355 355 355 355 358 0 2 3 3 3 3 3 2
184 185 185 187 189 189 189 190 190 191 192 193 194 195 199 202 203 205 209 214 218 220 223 227 228 224 222 224 226 226 225 228 235 240 237 235 235 238 243 249 253 258 264 269 273 279 284 290 296 301 306 309 309 306 306 307 309 311 310 310 313 318 324 333 341 343 344 345 345 346 349 352 354 355 354 355 357 360 2 4 5 6 7 7 6
188 189 188 188 189 189 189 189 190 191 192 193 193 195 197 200 202 204 208 212 217 221 224 227 225 222 223 228 230 228 228 231 235 236 233 232 235 240 246 251 256 261 267 273 277 281 285 289 295 299 304 307 306 302 303 307 308 308 308 307 308 311 315 323 332 338 341 344 346 346 347 350 353 355 355 355 356 358 0 3 4 6 7 8 8
189 191 191 190 190 190 189 189 189 191 192 193 194 196 197 198 201 204 207 211 216 220 224 225 225 226 230 234 235 232 230 232 235 235 233 234 239 243 248 254 259 264 270 275 279 282 285 288 293 297 299 302 303 300 301 305 308 308 308 306 305 308 310 314 321 329 335 341 345 346 347 348 350 352 354 354 355 357 359 2 4 5 6 6 7
188 189 190 190 190 189 190 190 189 190 192 193 195 197 199 200 203 205 207 211 216 221 225 227 229 231 235 239 241 238 234 234 235 236 236 238 244 248 252 257 263 268 274 278 280 283 286 289 292 294 294 295 297 297 299 305 307 307 307 305 304 306 308 308 312 318 325 332 339 344 345 346 347 349 352 353 354 355 357 360 2 5 7 7 7
186 187 188 189 189 189 189 189 190 191 193 194 196 198 200 204 206 207 209 213 218 224 228 231 233 236 240 245 249 248 244 242 241 242 243 247 252 256 259 264 269 272 276 279 282 284 288 291 292 290 289 290 291 295 299 304 306 307 308 307 305 305 307 307 307 310 315 320 328 336 341 343 344 346 348 350 350 351 354 356 359 2 5 7 8
185 186 186 187 188 189 189 189 191 193 194 194 196 198 202 204 205 207 211 216 221 226 230 234 237 241 245 251 255 253 251 250 248 248 251 255 259 263 266 269 273 276 278 282 285 288 290 291 289 286 285 286 288 293 297 301 305 307 308 309 307 306 308 309 308 308 309 311 316 324 331 336 339 341 344 346 347 348 350 352 356 359 2 5 7
186 187 187 187 188 191 192 192 192 193 193 195 198 201 204 206 206 208 214 219 224 229 233 237 242 247 250 255 258 257 256 255 253 253 256 258 260 264 267 269 273 277 280 283 287 289 289 288 286 285 286 286 288 292 294 298 303 306 307 309 309 309 309 311 311 310 309 309 308 312 318 325 331 334 338 342 345 346 347 349 352 355 358 2 5
188 188 188 187 188 191 194 194 194 195 196 198 202 205 207 208 208 210 216 222 226 230 235 241 247 252 255 258 260 260 260 261 259 257 258 259 259 262 265 268 273 277 280 285 288 289 289 289 288 287 288 288 288 290 292 295 299 302 304 307 309 310 311 314 316 315 313 309 304 304 307 313 319 324 329 335 339 342 345 346 348 351 356 359 1
190 189 187 186 186 189 192 194 196 196 196 199 203 206 209 210 211 214 220 225 228 232 238 245 251 255 257 260 263 263 264 264 263 260 258 258 259 262 266 270 275 280 281 285 287 288 289 291 291 291 291 291 290 290 291 292 295 299 302 304 306 309 313 317 318 318 317 312 307 304 302 303 307 312 318 325 330 335 340 343 343 346 351 355 358
191 190 188 186 185 186 189 192 194 196 197 201 205 208 210 212 215 220 225 228 231 235 241 248 254 258 260 261 264 264 264 263 261 260 259 259 260 263 267 272 277 279 280 282 285 286 288 289 290 291 292 292 291 290 290 291 293 295 298 302 304 307 312 316 317 318 318 316 312 307 300 298 301 303 305 311 319 324 330 336 338 340 345 351 355
193 191 189 186 184 184 187 190 194 199 203 206 210 212 213 214 218 223 228 231 234 239 245 250 256 259 260 261 262 261 260 258 258 258 259 259 259 261 267 273 276 279 283 286 288 291 294 295 295 295 295 296 296 295 293 293 294 295 297 301 303 305 309 312 313 315 317 317 315 310 303 298 298 298 297 299 304 310 316 322 328 333 336 341 348
193 191 189 186 185 185 187 191 196 203 208 211 213 216 218 220 222 225 229 232 236 240 245 250 253 255 257 259 259 258 256 256 259 260 260 260 261 264 269 274 278 282 288 291 293 294 295 295 295 296 295 293 292 291 291 292 293 294 297 299 301 303 306 307 308 310 313 313 313 312 307 302 299 296 294 293 293 297 303 308 314 322 326 328 335
193 191 188 187 186 187 189 193 199 206 212 215 216 217 219 221 224 227 230 233 237 242 246 249 251 253 256 257 257 257 257 258 261 264 265 266 268 270 272 275 278 283 288 291 292 292 290 288 289 291 290 289 288 287 288 289 291 292 294 297 298 300 301 302 303 305 306 307 308 309 307 304 301 297 293 291 289 289 292 294 299 307 312 314 320
193 191 190 189 188 189 192 195 202 209 215 218 220 221 221 223 225 228 231 236 242 249 253 253 253 253 255 257 257 258 260 261 263 265 267 268 269 271 272 273 276 281 285 288 289 290 289 289 290 291 292 293 295 294 292 292 292 292 294 295 296 297 297 297 298 299 299 300 303 304 303 302 300 297 294 292 289 286 286 286 288 292 295 299 306
193 192 191 190 189 190 192 196 203 212 218 220 222 223 222 223 225 228 232 239 248 254 257 255 253 252 255 257 258 260 261 263 265 266 266 266 267 269 271 274 278 282 287 290 291 291 291 292 294 295 294 294 294 293 292 292 294 296 299 300 300 301 301 298 297 296 296 298 301 302 300 299 298 297 297 297 293 289 287 285 283 283 285 287 291